Voltar ao catálogo

HULIANWANG DIGUI-03

AtivoComunicaçõesPO
NORAD 62325·PAYLOAD·🇨🇳 China

Lançado Dec 16, 2024 de Wenchang Space Launch Site

Loading…

Próximas Passagens (próximas 24 horas)

TLE

AtualizadoSource: Space-Track

Época: Sep 14, 2026, 14:10 UTC

1 62325U 24240C   26257.59094727  .00000035  00000-0  46957-4 0  9998
2 62325  86.4977 312.9788 0001714  90.9813 269.1518 13.24412760 84477

Acompanhe HULIANWANG DIGUI-03 em tempo real com AllMySat

Download on the App Store